Submittal Forms
Current Contests
Recent Contests

Club Activity Tracker - Redwood Empire DX Assoc (from list of calls managed by K6JS)

Recent postings for the selected club or group are listed below. Other than the call used, all calls listed are only those associated with the club or group. Click on a call to see the details of the posting.
Status Key: new=new posting, update=update prior posting, move=change club/group, delete=delete prior posting.

Sort by   for past

TimestampCallContestClassPowerScoreStatus
2020-05-18 05:38:35N6TQArQPSOMixedHP1,035new5565
2020-05-18 05:30:58N6TQHamventionSingle OpHP81new5569
2020-05-15 04:22:54N6ZFONCCC SprintSingle OpLP1,116new5580
2020-05-10 16:37:44N3RCVolta RTTYSOABLP31,298,685new5563
2020-05-08 03:35:18N6ZFONCCC SprintSingle OpLP1,184new5562
2020-05-04 17:17:14N6YEU7QPSOMixedLP13,524new5544
2020-05-04 00:47:37N6ZFO7QPSOMixedLP21new5544
2020-05-04 00:39:30N6ZFONewEngQPSingle OpLP13,570new5547
2020-05-03 18:01:41K6ANP7QPSO(A)MixedHP46,593new5544
2020-05-03 17:19:09N3RCNewEngQPSingle OpLP2,362new5547
 
2020-05-03 16:00:57K6JSNewEngQPSingle OpLP448new5547
2020-05-03 15:55:06K6JS7QPSO(A)CWLP10,962new5544
2020-05-03 14:37:35K6SRZNewEngQPSingle OpHP1,276new5547
2020-05-03 14:18:15K6SRZ7QPSOCWHP84,480new5544
2020-05-03 14:12:59K6RIM7QPSOMixedHP11,070new5544
2020-05-03 06:31:27N3RC7QPSO(A)MixedLP52,200new5544
2020-05-03 05:00:10K6CTA7QPSOCWLP3,120new5544
2020-05-01 03:41:00N6ZFONCCC SprintSingle OpLP1,080new5540
2020-04-27 00:00:53K6MMFlQPSOAB(A)MixedHP16,848new5529
2020-04-26 23:00:24K6SRZFlQPSOABCWHP15,040new